FLOCK 4G 23

导读

FLOCK 4G 23是美国Planet Labs公司Flock星座下的一颗3U型小型光学遥感卫星,于2025年1月14日发射升空。该卫星运行于近地轨道,属于地球观测卫星,搭载2900万像素传感器,可获取地面分辨率约3.7米的光学影像,服务于农业监测、城市规划、环境变化追踪等领域,补充了Planet公司全球对地观测星座的观测能力。

基本信息
目录编号:
62647
目录名称:
FLOCK 4G 23
国际标识:
2025-009AQ
轨道中心:
EARTH
卫星名称:
FLOCK 4G 23
卫星全名:
FLOCK 4G 23
卫星状态:
在轨 (已飞行599 天)
发射日期:
2025-01-14 UTC
国别 :
美国 (US)
星等 :
--
轨道信息
数据来源 国际轨道数据
星历时间: 2026-09-04T19:23:54+0800
20小时前
查看轨道信息
半长轴: 6828.018km
偏心率: 0.0001032
轨道倾角: 97.387°
近地点辐角 74.841°
升交点赤经 329.411°
平近点角 285.295°
近地点: 449.176km
远地点: 450.586km
周期: 93.584分钟
每日圈数: 15.387242
详细信息
使用方式:
暂无
2D轨道图
3D轨道图
轨道高度分析图
轨道倾角分析图
轨道综合分析图
查看轨道综合分析图